Location: Unspecified
(17.6330°N, 0.0000°E)
Time: 21:24:59
(UTC+00:00)

N. Korean satellite - Pass Details

Date: 04 November 2020
Orbit: 453 x 503 km, 97.2° (Epoch: 03 December)

Event Time Altitude Azimuth Distance (km) Brightness Sun altitude
Rises 05:08:34 0° 15° (NNE) 2,466 10.2 -12.8°
Reaches altitude 10° 05:10:36 10° 18° (NNE) 1,597 9.3 -12.3°
Maximum altitude 05:14:00 66° 101° (E) 508 6.9 -11.5°
Drops below altitude 10° 05:17:26 10° 183° (S) 1,617 9.3 -10.7°
Sets 05:19:30 0° 186° (S) 2,500 10.3 -10.2°
